Kivalina, AK

12:10 PM AKST on December 12, 2017 (GMT -0900)
Kivalina

Weather History for PAVL - August, 2013

Change the Weather History Date:

Wednesday, August 28, 2013

  Actual Average (PAWN) Record (PAWN)
Temperature  
Mean Temperature 42 °F -  
Max Temperature 48 °F 53 °F 82 °F (2007)
Min Temperature 37 °F 38 °F 28 °F (1996)
Degree Days  
Heating Degree Days 24    
Moisture  
Dew Point 38 °F    
Average Humidity 80    
Maximum Humidity 100    
Minimum Humidity 65    
Precipitation  
Precipitation 0.00 in - - ()
Sea Level Pressure  
Sea Level Pressure 29.67 in    
Wind  
Wind Speed 13 mph (NNW)    
Max Wind Speed 26 mph    
Max Gust Speed 29 mph    
Visibility 10 miles    
Events      
Averages and records for this station are not official NWS values.
T = Trace of Precipitation, MM = Missing Value Source: NWS Daily Summary

Daily Weather History Graph

Daily Weather History Graph

Search for Another Location

Airport or City:

Trip Planner

Search our weather history database for the weather conditions in past years. The results will help you decide how hot, cold, wet, or windy it might be!

Date:

Astronomy

Aug. 28, 2013 Rise Set
Actual Time 7:12 AM AKDT 10:42 PM AKDT
Civil Twilight 6:05 AM AKDT 11:49 PM AKDT
Nautical Twilight 3:58 AM AKDT 1:48 AM AKDT
Astronomical Twilight Sun does not rise Sun does not rise
Moon 11:26 PM AKDT (8/28) 7:20 PM AKDT (8/28)
Length of Visible Light 17h 44m
Length of Day
15h 29m
Last Quarter, 46% of the Moon is Illuminated
Aug 28
Last Quarter
Sep 5
New
Sep 12
First Quarter
Sep 19
Full
Sep 26
Last Quarter

Hourly Weather History & Observations

Time (AKDT) Temp. Windchill Dew Point Humidity Pressure Visibility Wind Dir Wind Speed Gust Speed Precip Events Conditions
12:53 AM 46.9 °F - 44.1 °F 90% 29.63 in 10.0 mi North 4.6 mph - N/A   Overcast
1:53 AM 46.0 °F 43.1 °F 42.1 °F 86% 29.62 in 10.0 mi North 5.8 mph - N/A   Overcast
2:53 AM 46.9 °F - 43.0 °F 86% 29.62 in 10.0 mi NNW 6.9 mph - N/A   Overcast
3:53 AM 46.9 °F - 43.0 °F 86% 29.62 in 10.0 mi NW 3.5 mph - N/A   Overcast
4:53 AM 46.0 °F 41.4 °F 43.0 °F 89% 29.61 in 10.0 mi NW 9.2 mph - N/A   Overcast
5:53 AM 42.1 °F 37.1 °F 39.9 °F 92% 29.61 in 10.0 mi North 8.1 mph - N/A   Mostly Cloudy
6:04 AM 42.8 °F 38.0 °F 39.2 °F 87% 29.61 in 10.0 mi North 8.1 mph - N/A   Scattered Clouds
6:27 AM 42.8 °F 36.6 °F 42.8 °F 100% 29.61 in 10.0 mi North 11.5 mph - N/A   Mostly Cloudy
6:53 AM 44.1 °F 37.1 °F 42.1 °F 93% 29.61 in 10.0 mi North 15.0 mph - N/A   Overcast
7:10 AM 44.6 °F 38.1 °F 42.8 °F 93% 29.61 in 10.0 mi North 13.8 mph - N/A   Overcast
7:53 AM 45.0 °F 39.3 °F 42.1 °F 90% 29.62 in 10.0 mi North 11.5 mph - N/A   Overcast
8:53 AM 43.0 °F 36.4 °F 39.0 °F 86% 29.62 in 10.0 mi North 12.7 mph - N/A   Overcast
9:08 AM 42.8 °F 36.6 °F 39.2 °F 87% 29.62 in 10.0 mi North 11.5 mph - N/A   Overcast
9:53 AM 43.0 °F 36.4 °F 37.9 °F 82% 29.62 in 10.0 mi North 12.7 mph - N/A   Overcast
10:53 AM 44.1 °F 37.4 °F 39.0 °F 82% 29.63 in 10.0 mi NNW 13.8 mph - N/A   Overcast
11:36 AM 44.6 °F 37.4 °F 39.2 °F 81% 29.64 in 10.0 mi North 16.1 mph - N/A   Overcast
11:53 AM 45.0 °F 37.9 °F 39.0 °F 80% 29.64 in 10.0 mi North 16.1 mph - N/A   Overcast
12:53 PM 45.0 °F 37.6 °F 37.9 °F 76% 29.65 in 10.0 mi NNW 17.3 mph - N/A   Overcast
1:53 PM 45.0 °F 37.4 °F 37.9 °F 76% 29.67 in 10.0 mi NNW 18.4 mph - N/A   Overcast
2:03 PM 44.6 °F 36.6 °F 37.4 °F 76% 29.66 in 10.0 mi NNW 19.6 mph - N/A   Overcast
2:53 PM 45.0 °F 36.6 °F 37.0 °F 74% 29.68 in 10.0 mi North 21.9 mph - N/A   Overcast
3:53 PM 43.0 °F 33.3 °F 36.0 °F 76% 29.69 in 10.0 mi NNW 25.3 mph - N/A   Overcast
4:10 PM 42.8 °F 33.8 °F 35.6 °F 76% 29.69 in 10.0 mi NNW 21.9 mph - N/A   Overcast
4:34 PM 42.8 °F 33.3 °F 35.6 °F 76% 29.69 in 10.0 mi NNW 24.2 mph 28.8 mph N/A   Overcast
4:53 PM 43.0 °F 33.5 °F 36.0 °F 76% 29.70 in 10.0 mi NNW 24.2 mph 28.8 mph N/A   Overcast
5:04 PM 42.8 °F 33.5 °F 35.6 °F 76% 29.70 in 10.0 mi NNW 23.0 mph - N/A   Mostly Cloudy
5:53 PM 43.0 °F 33.8 °F 34.0 °F 71% 29.70 in 10.0 mi NNW 23.0 mph - N/A   Clear
6:53 PM 44.1 °F 35.0 °F 33.1 °F 65% 29.72 in 10.0 mi NNW 24.2 mph - N/A   Clear
7:20 PM 44.6 °F 35.9 °F 33.8 °F 66% 29.72 in 10.0 mi NNW 23.0 mph - N/A   Mostly Cloudy
7:46 PM 42.8 °F 34.0 °F 35.6 °F 76% 29.73 in 10.0 mi NNW 20.7 mph - N/A   Scattered Clouds
7:53 PM 43.0 °F 33.1 °F 35.1 °F 74% 29.74 in 10.0 mi NNW 26.5 mph - N/A   Scattered Clouds
8:53 PM 41.0 °F 30.9 °F 33.1 °F 73% 29.75 in 10.0 mi NNW 24.2 mph - N/A   Clear
9:53 PM 39.9 °F 30.2 °F 30.0 °F 68% 29.77 in 10.0 mi NW 20.7 mph - N/A   Clear
10:53 PM 37.9 °F 27.9 °F 30.0 °F 73% 29.79 in 10.0 mi NNW 19.6 mph - N/A   Clear
11:53 PM 37.0 °F 27.7 °F 28.9 °F 73% 29.80 in 10.0 mi North 16.1 mph - N/A   Clear